Vertical_Velocity
1 1 1 1 1 0 -1 -2 0 0 3 2 1 -0 0 1 0 1 1 1 2 2 1 2 0 1 2 1 1 1 1 0 1 1 -0 -1 -1 -0 1 1 -0 -0 -0
1 1 -1 2 2 1 -0 -1 -0 -2 1 -0 -3 -1 2 2 1 -0 1 1 1 3 1 1 1 -0 2 2 1 1 1 -0 -0 -0 -0 -1 -0 -0 -1 -0 0 -1 0
2 2 1 1 2 0 0 2 -0 -0 0 -0 2 1 3 -0 1 0 1 1 1 1 2 0 0 1 0 2 2 2 1 0 1 0 -1 0 -0 -0 0 1 -0 0 -0
-1 1 2 1 1 -1 -0 1 1 -2 -1 -1 0 3 1 -1 1 1 -1 0 1 1 1 1 0 0 -1 1 1 2 1 1 0 1 1 -1 -0 -0 -1 -0 0 -1 0
-1 -2 -1 1 1 2 1 0 1 0 -0 -1 -2 0 -0 -1 -2 1 1 1 -0 2 1 0 0 -1 -1 -0 0 1 1 2 1 1 1 -0 -0 -1 -1 -1 -1 1 -0
-1 -1 -2 1 2 1 1 -0 1 2 -1 4 1 -1 1 1 -2 -1 1 -0 -1 -0 2 -1 0 -0 -1 -0 0 0 1 0 2 0 1 0 -1 -2 -0 0 1 -1 0
0 -0 1 1 2 3 1 3 1 0 -0 -0 1 0 -0 1 2 1 -1 0 1 -1 -0 -0 -0 -0 1 0 -0 0 0 -0 -0 -0 -0 1 1 -0 -0 -0 -0 0 0
-0 -0 -0 -1 -1 0 1 0 1 2 0 1 -0 0 -1 2 0 1 -0 1 1 -0 0 -1 -0 0 -0 1 0 -0 0 -1 -1 0 -1 1 -0 -0 -0 -1 -0 -1 -1
-1 -1 -1 -1 -1 -1 -1 -1 0 0 1 -1 -0 -1 -0 -0 -1 -3 -1 -0 1 -0 -0 0 -1 -0 0 -0 1 0 1 0 -2 -1 -1 0 1 1 0 0 0 -0 -0
-1 -0 -1 -2 -2 -1 0 -0 -0 1 -0 1 0 -0 -0 0 0 2 -0 -0 -1 1 -2 1 1 1 -1 -0 1 1 -1 1 1 -1 -1 0 -0 -0 1 1 0 -1 -0
-0 -1 -1 -0 -1 -3 -3 0 1 0 0 -0 -1 1 0 0 -0 -0 1 0 -2 1 3 1 1 -1 -0 0 0 1 -1 1 1 2 -1 -0 1 1 0 0 0 0 -0
-0 0 -1 -0 0 0 -2 -3 -1 1 1 1 0 -1 -1 1 -0 0 1 2 -1 -1 1 2 -2 2 0 -0 1 1 1 -0 2 0 2 0 -1 -1 1 1 0 1 0
-2 -1 -1 -0 -0 0 1 -0 -2 -1 0 1 2 0 -0 2 -2 3 1 1 1 -1 0 -1 1 3 2 1 2 0 2 1 -1 0 4 2 0 0 -0 0 1 1 -0
-2 -1 0 -0 -1 0 -1 -0 1 -1 -1 -0 1 1 1 -2 -0 2 2 -1 1 1 2 0 3 1 3 1 -1 1 1 2 2 -1 3 2 2 -0 -1 -1 0 1 -0
-2 -2 -1 -2 0 2 0 1 1 1 1 -0 0 1 1 1 -1 -0 2 1 2 -1 -0 0 2 -1 1 4 1 -0 0 1 2 2 4 -0 2 2 3 -1 -1 -1 -0
-2 -0 -0 -0 -2 -3 -2 -0 1 1 1 0 -0 2 1 -0 1 -1 -0 1 3 -0 1 0 1 0 -2 -5 2 2 -0 0 1 2 2 -2 -1 2 1 -0 -0 0 -1
-2 -3 -2 0 -2 -2 -2 -3 -3 0 1 2 1 -0 0 1 -0 1 -0 -0 2 0 -0 2 0 1 0 -1 -8 1 -0 0 2 1 1 4 0 -1 1 -1 2 -0 2
-1 -2 -0 1 -0 -2 -2 -1 -2 -2 -2 0 2 1 -0 -1 1 -0 -0 1 -0 -1 -2 1 -0 -0 -1 1 3 -4 0 2 1 -0 2 3 4 1 -0 -1 1 0 -0
-3 -3 -2 -3 -4 -2 -2 -4 -4 -2 -2 -1 0 0 1 1 0 0 1 1 1 0 -1 -0 1 -0 0 -1 1 1 -1 -2 -1 0 4 -1 2 3 0 1 1 2 -1
-4 -2 -3 -4 -4 -4 -4 -5 -6 -5 -4 -1 -1 2 1 1 1 -0 0 1 -0 0 -0 -0 1 2 1 1 -1 2 -10 27 -19 -1 1 -1 -2 -0 4 2 2 3 3
-6 -4 -4 -4 -4 -3 -3 -6 -3 -5 -3 -3 -2 0 -0 -0 -2 -1 0 1 0 2 0 1 -1 2 -2 2 2 -3 2 -3 -13 5 4 -0 -2 -3 1 2 4 5 3
-5 -1 -1 -4 -3 -5 -7 -6 -5 -2 -2 -3 -2 0 -1 1 2 3 4 3 1 2 2 2 0 2 -2 -0 1 5 -7 -5 7 26 -0 4 11 4 -3 4 0 4 3
-3 -3 -3 -2 -3 -6 -5 -4 -4 -2 -3 1 -4 -1 0 3 0 -1 -1 1 0 -1 3 -0 -0 2 1 -1 2 1 -5 -11 17 0 -2 6 2 31 -2 -1 1 5 3
-3 -2 -3 -1 -3 -3 -2 -4 -2 -3 0 -5 -3 2 -1 -2 1 3 1 -0 -0 -0 3 3 1 4 -2 -1 -0 5 -3 -2 -5 -1 2 -5 -1 -4 1 1 4 3 3
-4 -1 0 -0 -3 -3 -3 -5 -3 -2 -2 -4 -1 -1 -0 1 2 -3 2 -1 -1 -3 -2 -1 -1 -0 1 -0 -0 12 -2 -2 -2 -7 4 0 6 9 7 55 -0 2 3
-2 0 0 -1 -3 -3 -3 -4 -2 -1 -2 -0 -1 0 -2 -3 -0 1 -1 1 -2 1 1 1 -0 0 0 -3 2 -3 1 1 3 5 1 -0 6 1 3 7 -18 -2 4
Height
5833 5834 5834 5836 5837 5838 5839 5840 5841 5843 5844 5846 5847 5848 5849 5850 5851 5852 5854 5856 5857 5858 5860 5861 5861 5862 5864 5865 5866 5868 5869 5870 5871 5872 5873 5874 5876 5877 5878 5879 5880 5881 5881
5831 5831 5832 5833 5835 5836 5838 5839 5839 5841 5842 5844 5846 5848 5848 5849 5850 5851 5853 5855 5856 5858 5859 5861 5862 5863 5864 5865 5866 5868 5869 5870 5871 5873 5874 5875 5877 5878 5879 5880 5881 5882 5881
5828 5829 5830 5831 5833 5834 5835 5837 5838 5839 5841 5842 5844 5846 5847 5848 5849 5850 5852 5853 5855 5857 5858 5860 5861 5863 5864 5865 5866 5868 5869 5870 5872 5873 5875 5876 5878 5879 5879 5880 5881 5882 5882
5825 5826 5827 5828 5830 5831 5833 5834 5835 5837 5838 5840 5841 5843 5845 5846 5848 5848 5850 5851 5853 5855 5856 5858 5860 5862 5863 5864 5865 5867 5868 5870 5871 5873 5875 5876 5878 5879 5880 5880 5882 5882 5883
5822 5822 5823 5825 5826 5828 5830 5831 5832 5834 5835 5837 5839 5840 5842 5844 5846 5847 5848 5850 5851 5853 5854 5856 5858 5860 5862 5863 5864 5866 5867 5869 5870 5872 5873 5875 5876 5878 5879 5880 5881 5882 5882
5817 5818 5819 5821 5822 5824 5825 5827 5829 5830 5831 5833 5836 5838 5839 5840 5843 5844 5846 5848 5849 5850 5852 5853 5855 5857 5859 5861 5863 5864 5866 5867 5869 5870 5872 5874 5875 5876 5878 5879 5880 5881 5882
5813 5814 5816 5818 5819 5821 5822 5823 5825 5827 5828 5829 5831 5834 5836 5837 5839 5841 5843 5845 5847 5848 5849 5850 5852 5854 5856 5858 5860 5862 5864 5865 5867 5869 5871 5872 5874 5875 5877 5878 5879 5880 5881
5808 5810 5811 5813 5814 5816 5818 5820 5821 5822 5824 5826 5827 5829 5831 5833 5835 5837 5839 5841 5844 5845 5846 5847 5849 5850 5853 5855 5858 5860 5862 5863 5864 5866 5869 5871 5873 5874 5875 5876 5878 5879 5880
5804 5805 5806 5807 5809 5811 5813 5815 5817 5818 5819 5821 5823 5825 5827 5829 5832 5834 5835 5838 5840 5841 5842 5844 5846 5847 5849 5852 5854 5857 5859 5861 5862 5864 5867 5870 5871 5872 5873 5875 5876 5877 5878
5799 5801 5801 5802 5803 5805 5807 5809 5811 5813 5814 5816 5818 5820 5822 5824 5827 5829 5831 5833 5835 5837 5838 5841 5843 5844 5846 5848 5851 5853 5856 5858 5860 5862 5864 5866 5869 5870 5872 5873 5874 5875 5876
5794 5795 5796 5797 5798 5798 5800 5803 5805 5807 5809 5810 5812 5814 5816 5818 5820 5822 5825 5828 5830 5832 5834 5836 5838 5840 5842 5844 5847 5849 5852 5855 5857 5859 5861 5863 5865 5867 5869 5871 5872 5873 5874
5789 5790 5791 5792 5793 5794 5795 5796 5799 5801 5803 5804 5806 5808 5810 5812 5814 5816 5818 5821 5823 5826 5829 5831 5833 5836 5838 5840 5842 5845 5847 5850 5852 5855 5857 5859 5861 5863 5866 5867 5869 5870 5872
5783 5784 5786 5787 5788 5789 5790 5791 5792 5794 5797 5798 5800 5801 5803 5805 5807 5810 5811 5813 5815 5818 5822 5825 5828 5830 5833 5835 5837 5839 5843 5845 5847 5850 5853 5855 5857 5859 5861 5863 5865 5867 5868
5778 5778 5779 5780 5781 5783 5785 5786 5787 5788 5790 5792 5793 5795 5796 5797 5800 5802 5804 5807 5809 5811 5814 5818 5821 5823 5826 5829 5831 5833 5836 5839 5841 5844 5847 5849 5853 5854 5856 5858 5860 5862 5863
5773 5773 5773 5773 5774 5775 5777 5779 5780 5781 5782 5784 5786 5788 5789 5791 5792 5794 5796 5799 5802 5804 5806 5809 5813 5816 5819 5822 5824 5826 5829 5832 5835 5838 5842 5844 5847 5849 5851 5852 5855 5857 5858
5767 5767 5766 5766 5766 5767 5769 5770 5772 5773 5774 5775 5777 5779 5781 5783 5785 5787 5789 5791 5794 5796 5798 5801 5804 5808 5811 5814 5817 5820 5822 5825 5828 5831 5835 5837 5840 5843 5845 5847 5849 5852 5853
5761 5760 5759 5759 5759 5758 5759 5761 5762 5763 5764 5766 5767 5769 5771 5774 5776 5778 5780 5783 5785 5788 5790 5793 5796 5799 5803 5807 5810 5813 5815 5818 5821 5823 5827 5830 5832 5835 5838 5840 5843 5845 5847
5753 5752 5751 5751 5750 5749 5749 5750 5751 5753 5754 5755 5757 5758 5760 5763 5765 5768 5771 5774 5776 5779 5781 5784 5787 5791 5794 5798 5801 5804 5808 5811 5813 5815 5819 5822 5825 5827 5830 5833 5836 5839 5840
5745 5744 5743 5742 5741 5741 5741 5741 5741 5742 5743 5744 5745 5747 5749 5751 5754 5757 5761 5764 5766 5769 5772 5775 5777 5781 5785 5789 5792 5794 5799 5802 5804 5807 5810 5812 5817 5820 5822 5825 5828 5831 5833
5736 5735 5734 5733 5732 5731 5731 5730 5730 5731 5731 5733 5734 5735 5737 5740 5742 5746 5749 5752 5755 5758 5761 5764 5767 5770 5774 5779 5782 5785 5786 5782 5793 5797 5801 5803 5806 5810 5814 5816 5819 5822 5825
5725 5724 5722 5722 5721 5721 5720 5719 5718 5718 5718 5720 5722 5723 5724 5727 5729 5733 5737 5740 5743 5747 5749 5753 5756 5760 5762 5767 5770 5773 5772 5777 5781 5784 5791 5796 5798 5800 5803 5807 5811 5814 5817
5714 5713 5712 5710 5710 5710 5709 5707 5705 5705 5706 5707 5708 5710 5712 5714 5717 5721 5724 5728 5731 5735 5738 5741 5744 5748 5750 5754 5758 5761 5762 5765 5767 5764 5778 5785 5789 5790 5792 5797 5801 5804 5807
5701 5700 5699 5698 5698 5698 5697 5695 5693 5692 5692 5694 5695 5698 5700 5702 5705 5708 5711 5715 5719 5723 5727 5730 5733 5737 5739 5742 5745 5747 5750 5755 5759 5761 5766 5770 5773 5776 5780 5786 5789 5793 5797
5688 5687 5686 5685 5684 5683 5683 5681 5680 5680 5679 5681 5683 5685 5687 5690 5693 5697 5700 5703 5707 5710 5715 5718 5720 5724 5726 5730 5732 5736 5738 5743 5746 5752 5756 5759 5761 5765 5769 5774 5778 5781 5786
5674 5673 5672 5671 5670 5669 5668 5667 5667 5667 5667 5668 5670 5672 5674 5677 5680 5684 5688 5691 5694 5698 5702 5705 5707 5710 5713 5716 5719 5722 5725 5730 5733 5738 5742 5747 5749 5753 5756 5753 5761 5768 5773
5659 5658 5657 5656 5655 5654 5653 5653 5654 5654 5655 5656 5658 5659 5661 5664 5667 5671 5674 5679 5682 5686 5689 5692 5694 5697 5699 5702 5705 5707 5712 5715 5719 5722 5727 5733 5736 5738 5741 5748 5753 5755 5760